When you browse on this site, cookies collect data to enhance your experience and personalize the content and advertising you see.
Visit our Privacy Policy to learn more. By continuing to use the site, you agree to this use of cookies and data.
  • In Switzerland
  • List of Countries
  • For 7 days
  • Water Temperature
  • Weather Map
  • Weather Widgets
  • user-avatar
    Login

    Hourly Weather Santiago del Estero

    Today, 15 November, Friday

    Time Temperature Precipitation Wind Pressure Humidity
    00:00 +27°C° 0 mm 3 mps 741 mmHg 48%
    01:00 +27°C° 0 mm 3 mps 741 mmHg 49%
    02:00 +26°C° 0 mm 3 mps 741 mmHg 50%
    03:00 +26°C° 0 mm 3 mps 741 mmHg 51%
    04:00 +26°C° 0 mm 3 mps 740 mmHg 52%
    05:00 +25°C° 0 mm 3 mps 740 mmHg 53%
    06:00 +27°C° 0 mm 4 mps 741 mmHg 49%
    07:00 +29°C° 0 mm 5 mps 741 mmHg 45%
    08:00 +30°C° 0 mm 6 mps 742 mmHg 40%
    09:00 +33°C° 0 mm 6 mps 742 mmHg 36%
    10:00 +35°C° 0 mm 7 mps 741 mmHg 33%
    11:00 +38°C° 0 mm 7 mps 741 mmHg 29%
    12:00 +39°C° 0 mm 6 mps 740 mmHg 27%
    13:00 +40°C° 0 mm 6 mps 740 mmHg 25%
    14:00 +41°C° 0 mm 6 mps 739 mmHg 22%
    15:00 +41°C° 0 mm 5 mps 738 mmHg 22%
    16:00 +41°C° 0 mm 5 mps 738 mmHg 22%
    17:00 +41°C° 0 mm 5 mps 737 mmHg 22%
    18:00 +39°C° 0 mm 5 mps 738 mmHg 26%
    19:00 +36°C° 0 mm 5 mps 738 mmHg 29%
    20:00 +34°C° 0 mm 4 mps 739 mmHg 33%
    21:00 +33°C° 0 mm 5 mps 739 mmHg 34%
    22:00 +32°C° 0 mm 5 mps 739 mmHg 35%
    23:00 +32°C° 0 mm 5 mps 739 mmHg 36%

    Tomorrow, 16 November, Saturday

    Time Temperature Precipitation Wind Pressure Humidity
    00:00 +30°C° 0 mm 5 mps 739 mmHg 38%
    01:00 +29°C° 0 mm 5 mps 739 mmHg 41%
    02:00 +28°C° 0 mm 5 mps 738 mmHg 43%
    03:00 +27°C° 0 mm 5 mps 738 mmHg 44%
    04:00 +27°C° 0 mm 5 mps 738 mmHg 45%
    05:00 +26°C° 0 mm 5 mps 738 mmHg 46%
    06:00 +28°C° 0 mm 6 mps 739 mmHg 43%
    07:00 +29°C° 0 mm 7 mps 739 mmHg 39%
    08:00 +31°C° 0 mm 8 mps 740 mmHg 36%
    09:00 +33°C° 0 mm 8 mps 739 mmHg 33%
    10:00 +35°C° 0 mm 8 mps 739 mmHg 29%
    11:00 +38°C° 0 mm 7 mps 739 mmHg 26%
    12:00 +40°C° 0 mm 7 mps 738 mmHg 24%
    13:00 +41°C° 0 mm 7 mps 737 mmHg 22%
    14:00 +42°C° 0 mm 6 mps 736 mmHg 21%
    15:00 +42°C° 0 mm 6 mps 736 mmHg 20%
    16:00 +42°C° 0 mm 5 mps 735 mmHg 20%
    17:00 +42°C° 0 mm 5 mps 735 mmHg 19%
    18:00 +40°C° 0 mm 5 mps 736 mmHg 22%
    19:00 +36°C° 0 mm 5 mps 736 mmHg 25%
    20:00 +34°C° 0 mm 5 mps 737 mmHg 28%
    21:00 +33°C° 0 mm 5 mps 737 mmHg 29%
    22:00 +32°C° 0 mm 6 mps 738 mmHg 30%
    23:00 +30°C° 0 mm 6 mps 738 mmHg 30%

    Day after tomorrow, 17 November, Sunday

    Time Temperature Precipitation Wind Pressure Humidity
    00:00 +30°C° 0 mm 5 mps 738 mmHg 31%
    01:00 +29°C° 0 mm 5 mps 738 mmHg 33%
    02:00 +28°C° 0 mm 4 mps 738 mmHg 34%
    03:00 +27°C° 0 mm 3 mps 739 mmHg 35%
    04:00 +27°C° 0 mm 3 mps 739 mmHg 37%
    05:00 +26°C° 0 mm 3 mps 739 mmHg 38%
    06:00 +27°C° 0 mm 4 mps 739 mmHg 37%
    07:00 +28°C° 0 mm 5 mps 740 mmHg 36%
    08:00 +29°C° 0 mm 6 mps 740 mmHg 35%
    09:00 +32°C° 0 mm 6 mps 740 mmHg 32%
    10:00 +34°C° 0 mm 6 mps 740 mmHg 28%
    11:00 +36°C° 0 mm 6 mps 740 mmHg 24%
    12:00 +38°C° 0 mm 6 mps 739 mmHg 22%
    13:00 +40°C° 0 mm 6 mps 739 mmHg 21%
    14:00 +41°C° 0 mm 6 mps 738 mmHg 19%
    15:00 +41°C° 0 mm 6 mps 738 mmHg 19%
    16:00 +41°C° 0 mm 5 mps 737 mmHg 19%
    17:00 +41°C° 0 mm 5 mps 737 mmHg 19%
    18:00 +38°C° 0 mm 6 mps 737 mmHg 24%
    19:00 +35°C° 0 mm 6 mps 738 mmHg 28%
    20:00 +33°C° 0 mm 6 mps 738 mmHg 32%
    21:00 +32°C° 0 mm 5 mps 738 mmHg 33%
    22:00 +30°C° 0 mm 5 mps 738 mmHg 34%
    23:00 +29°C° 0 mm 5 mps 738 mmHg 35%

    18 November, Monday

    Time Temperature Precipitation Wind Pressure Humidity
    00:00 +29°C° 0 mm 4 mps 738 mmHg 37%
    01:00 +28°C° 0 mm 4 mps 738 mmHg 39%
    02:00 +27°C° 0 mm 3 mps 737 mmHg 41%
    03:00 +26°C° 0 mm 3 mps 738 mmHg 43%
    04:00 +26°C° 0 mm 3 mps 738 mmHg 45%
    05:00 +25°C° 0 mm 3 mps 738 mmHg 47%
    06:00 +27°C° 0 mm 4 mps 739 mmHg 44%
    07:00 +28°C° 0 mm 4 mps 739 mmHg 42%
    08:00 +30°C° 0 mm 5 mps 740 mmHg 39%
    09:00 +33°C° 0 mm 5 mps 740 mmHg 34%
    10:00 +36°C° 0 mm 5 mps 740 mmHg 29%
    11:00 +39°C° 0 mm 5 mps 740 mmHg 24%
    12:00 +40°C° 0 mm 5 mps 740 mmHg 22%
    13:00 +41°C° 0 mm 4 mps 739 mmHg 21%
    14:00 +42°C° 0 mm 4 mps 739 mmHg 19%
    15:00 +42°C° 0 mm 4 mps 738 mmHg 19%
    16:00 +42°C° 0 mm 4 mps 738 mmHg 19%
    17:00 +42°C° 0 mm 5 mps 737 mmHg 19%
    18:00 +39°C° 0 mm 5 mps 738 mmHg 22%
    19:00 +36°C° 0 mm 6 mps 738 mmHg 25%
    20:00 +33°C° 0 mm 6 mps 739 mmHg 29%
    21:00 +32°C° 0 mm 5 mps 739 mmHg 30%
    22:00 +30°C° 0 mm 5 mps 740 mmHg 32%
    23:00 +29°C° 0 mm 4 mps 740 mmHg 34%

    19 November, Tuesday

    Time Temperature Precipitation Wind Pressure Humidity
    00:00 +28°C° 0 mm 4 mps 740 mmHg 36%
    01:00 +27°C° 0 mm 3 mps 740 mmHg 39%
    02:00 +26°C° 0 mm 3 mps 740 mmHg 42%
    03:00 +26°C° 0 mm 2 mps 740 mmHg 44%
    04:00 +25°C° 0 mm 2 mps 740 mmHg 46%
    05:00 +24°C° 0 mm 2 mps 740 mmHg 48%
    06:00 +26°C° 0 mm 2 mps 741 mmHg 45%
    07:00 +28°C° 0 mm 3 mps 741 mmHg 41%
    08:00 +30°C° 0 mm 4 mps 742 mmHg 38%
    09:00 +33°C° 0 mm 4 mps 741 mmHg 33%
    10:00 +36°C° 0 mm 5 mps 741 mmHg 29%
    11:00 +39°C° 0 mm 5 mps 741 mmHg 25%
    12:00 +40°C° 0 mm 5 mps 740 mmHg 23%
    13:00 +41°C° 0 mm 5 mps 739 mmHg 21%
    14:00 +43°C° 0 mm 5 mps 738 mmHg 19%
    15:00 +43°C° 0 mm 5 mps 737 mmHg 18%
    16:00 +43°C° 0 mm 5 mps 736 mmHg 18%
    17:00 +43°C° 0 mm 5 mps 735 mmHg 17%
    18:00 +41°C° 0 mm 5 mps 735 mmHg 20%
    19:00 +37°C° 0 mm 5 mps 736 mmHg 23%
    20:00 +35°C° 0 mm 5 mps 736 mmHg 26%
    21:00 +34°C° 0 mm 5 mps 736 mmHg 28%
    22:00 +33°C° 0 mm 5 mps 736 mmHg 30%
    23:00 +33°C° 0 mm 5 mps 737 mmHg 32%

    20 November, Wednesday

    Time Temperature Precipitation Wind Pressure Humidity
    00:00 +32°C° 0 mm 4 mps 736 mmHg 34%
    01:00 +30°C° 0 mm 4 mps 736 mmHg 36%
    02:00 +29°C° 0 mm 3 mps 736 mmHg 38%
    03:00 +28°C° 0 mm 3 mps 736 mmHg 40%
    04:00 +28°C° 0 mm 4 mps 736 mmHg 41%
    05:00 +27°C° 0 mm 4 mps 736 mmHg 43%
    06:00 +29°C° 0 mm 5 mps 736 mmHg 39%
    07:00 +32°C° 0 mm 6 mps 736 mmHg 36%
    08:00 +34°C° 0 mm 8 mps 737 mmHg 33%
    09:00 +38°C° 0 mm 7 mps 736 mmHg 28%
    10:00 +41°C° 0 mm 7 mps 736 mmHg 24%
    11:00 +44°C° 0 mm 7 mps 736 mmHg 19%
    12:00 +46°C° 0 mm 7 mps 735 mmHg 17%
    13:00 +47°C° 0 mm 7 mps 734 mmHg 14%
    14:00 +49°C° 0 mm 7 mps 734 mmHg 12%
    15:00 +48°C° 0 mm 6 mps 733 mmHg 12%
    16:00 +48°C° 0 mm 6 mps 733 mmHg 12%
    17:00 +48°C° 0 mm 5 mps 732 mmHg 12%
    18:00 +45°C° 0 mm 5 mps 733 mmHg 14%
    19:00 +41°C° 0 mm 4 mps 734 mmHg 16%
    20:00 +37°C° 0 mm 3 mps 734 mmHg 18%
    21:00 +36°C° 0 mm 3 mps 735 mmHg 22%
    22:00 +36°C° 0 mm 2 mps 735 mmHg 25%
    23:00 +35°C° 0 mm 2 mps 735 mmHg 29%
    Show more